7 * 24
多渠道服务支持
ORBCOMM FM 33是由ORBCOMM公司发射的低轨通信卫星,于1999年12月4日发射升空,属于ORBCOMM星座的一部分。该卫星主要提供全球机器对机器(M2M)通信服务,支持资产跟踪、海上和陆上远程监测等应用,依托低轨星座组网实现广域覆盖,为物联网领域提供了早期的卫星通信解决方案,是低轨小卫星通信商业化应用的早期实践案例之一。
(ORB)
| 数据来源 | 国际轨道数据 |
| 星历时间: | 2026-09-10T23:29:53+0800 19小时前 查看轨道信息 |
| 半长轴: | 7133.019km |
| 偏心率: | 0.0009765 |
| 轨道倾角: | 45.030° |
| 近地点辐角 | 174.614° |
| 升交点赤经 | 15.207° |
| 平近点角 | 185.482° |
| 近地点: | 747.916km |
| 远地点: | 761.848km |
| 周期: | 99.924分钟 |
| 每日圈数: | 14.410954 |